This is the latest recevied weather packets stored in our database for station/object KA1AL. If no packets are shown the sender has not sent any weather packets the latest 10 day(s).
| Time | Temp. | Humidity | Pressure | Rain* | Wind** | Luminosity | Snow |
|---|---|---|---|---|---|---|---|
| 1778012092 | 22.78° C | 57% | 1002 hPa | 0 mm | - | 147 W/m² | - |
| 1778011789 | 22.78° C | 57% | 1001.8 hPa | 0 mm | - | 228 W/m² | - |
| 1778011487 | 22.78° C | 57% | 1001.8 hPa | 0 mm | - | 157 W/m² | - |
| 1778011182 | 22.78° C | 59% | 1002.1 hPa | 0 mm | - | 235 W/m² | - |
| 1778010880 | 22.78° C | 57% | 1001.9 hPa | 0 mm | - | 195 W/m² | - |
| 1778010577 | 22.78° C | 57% | 1001.8 hPa | 0 mm | - | 172 W/m² | - |
| 1778010274 | 23.33° C | 57% | 1002 hPa | 0 mm | - | 511 W/m² | - |
| 1778009974 | 23.33° C | 56% | 1001.9 hPa | 0 mm | - | 416 W/m² | - |
| 1778009672 | 23.33° C | 56% | 1002.2 hPa | 0 mm | - | 429 W/m² | - |
| 1778009370 | 23.33° C | 56% | 1002.2 hPa | 0 mm | - | 254 W/m² | - |
| 1778009068 | 23.33° C | 56% | 1002.2 hPa | 0 mm | - | 433 W/m² | - |
| 1778008765 | 23.89° C | 56% | 1002.2 hPa | 0 mm | - | 389 W/m² | - |
| 1778008464 | 23.89° C | 56% | 1002.3 hPa | 0 mm | - | 624 W/m² | - |
| 1778008160 | 23.33° C | 56% | 1002.4 hPa | 0 mm | - | 616 W/m² | - |
| 1778007856 | 23.33° C | 56% | 1002.5 hPa | 0 mm | - | 536 W/m² | - |
| 1778007551 | 23.33° C | 56% | 1002.4 hPa | 0 mm | - | 566 W/m² | - |
| 1778007249 | 23.33° C | 55% | 1002.5 hPa | 0 mm | - | 576 W/m² | - |
| 1778006944 | 23.33° C | 56% | 1002.4 hPa | 0 mm | - | 576 W/m² | - |
| 1778006641 | 22.78° C | 56% | 1002.6 hPa | 0 mm | - | 594 W/m² | - |
| 1778006338 | 22.78° C | 56% | 1002.7 hPa | 0 mm | - | 628 W/m² | - |
| 1778006035 | 22.78° C | 59% | 1002.8 hPa | 0 mm | - | 585 W/m² | - |
| 1778005732 | 22.78° C | 57% | 1002.8 hPa | 0 mm | - | 606 W/m² | - |
| 1778005429 | 22.78° C | 57% | 1003 hPa | 0 mm | - | 628 W/m² | - |
| 1778005125 | 23.33° C | 56% | 1002.8 hPa | 0 mm | - | 633 W/m² | - |
| 1778004823 | 23.33° C | 55% | 1002.8 hPa | 0 mm | - | 642 W/m² | - |
* Rain latest hour (hover to see other rain measurements)
** Current wind speed in m/s (hover to see current wind gust speed)